Find Taiji-1

NORAD ID: 44520 Int'l Des: 2019-058 Owner: CNSSC Country: CN operational
LEOCIRCULARRETROGRADESSO

Live-Position

3D-Globus wird geladen...

Über Taiji-1

Beschreibung wird geladen...

Nächste Überflüge

Passes for default location (London). Set your location on the main map for personalized predictions.

Höhenverlauf

Loading altitude history...

Zweizeiliger Elementsatz

1 44520U 19058B 26135.29112766 .00000130 00000-0 16607-4 0 9997
2 44520 97.7779 148.7776 0011560 93.0042 267.2502 14.96574294365115
Epoch: 15. Mai 2026 • Age: 16 hours

Aktueller Status

Höhe 577.9 km
Geschwindigkeit 7.58 km/s
Subsatellitenpunkt 38.06°N, 78.41°W
Startdatum 30. Aug. 2019
Alter 6.7 years
Typ other

Technische Details

Klassifizierung Payload
Masse 100.00 kg
Trockenmasse 100.00 kg
Gesamtmasse 100.00 kg
Länge 1.00 m
Durchmesser 0.50 m
Spannweite 2.00 m
Form Box + 2 pan
Hersteller CNSSC
Bus-Typ KX-09
Phasenstatus In Orbit
Besitzer/Staat CNSSC/CN

Most Searched